Regional Weather Roundup
Issued by NWS Bismarck, ND

Home | Current Version | Previous Version | Text Only | Print | Product List | Glossary On
Versions: 1 2 3 4 5 6 7 8 9 10 11 12 13 14 15 16 17 18 19 20 21 22 23 24 25 26 27 28 29 30 31 32 33 34 35 36 37 38 39 40 41 42 43 44 45 46 47 48 49 50
000
ASUS43 KBIS 060310
RWRBIS

NWR BROADCAST TEXT
NATIONAL WEATHER SERVICE BISMARCK ND
1000 PM CDT THU MAY 05 2016

NOTE: "FAIR" INDICATES FEW OR NO CLOUDS BELOW 12,000 FEET WITH NO
SIGNIFICANT WEATHER AND/OR OBSTRUCTIONS TO VISIBILITY.


CITY           SKY/WX    TMP DP  RH WIND       PRES   REMARKS
WILLISTON      CLEAR     66  43  43 W10       29.75R
MINOT          CLOUDY    77  40  26 SW8       29.72S
MINOT AFB      CLOUDY    69  42  36 SW7       29.71R
BISMARCK       CLOUDY    68  48  48 CALM      29.78R
DICKINSON      CLOUDY    65  37  35 S5        29.79S
GARRISON         N/A     70  39  32 S3        29.76R
HETTINGER ARPT CLOUDY    67  50  54 SE6       29.84S
JAMESTOWN      CLEAR     73  44  35 W6        29.78R
BEACH          FAIR      63  41  45 SW6       29.84R
CARRINGTON     FAIR      68  45  42 SW8       29.79R
HAZEN          FAIR      63  45  51 S7        29.79R
LINTON         FAIR      68  55  64 S10       29.82R
MANDAN         FAIR      72  41  33 SW6       29.81R
OAKES            N/A    N/A N/A N/A MISG        N/A
RUGBY          FAIR      73  41  31 SW15      29.72S
STANLEY        FAIR      66  41  39 SW5       29.78S
TIOGA          FAIR      66  37  34 SW10      29.81R
WATFORD CITY   FAIR      64  46  52 S5        29.77R
$$

CITY           SKY/WX    TMP DP  RH WIND       PRES   REMARKS
GRAND FORKS    PTCLDY    67  38  34 SW7       29.71S
GRAND FORKS AF CLEAR     68  39  34 SW6       29.72S
DEVILS LAKE    CLOUDY    72  43  35 SW12      29.74S
FARGO          CLEAR     76  40  27 SW12      29.76R
CANDO          FAIR      72  41  33 SW10      29.74S
CAVALIER       FAIR      75  43  31 SW9       29.68S
GRAFTON        FAIR      68  39  34 SW12      29.71S
GWINNER        FAIR      68  43  40 S10       29.82R
LANGDON        FAIR      66  37  34 S13       29.73S
ROLLA          FAIR      68  39  34 SW12      29.73S
WALHALLA       FAIR      77  39  25 SW9       29.68S
$$

CITY           SKY/WX    TMP DP  RH WIND       PRES   REMARKS
ABERDEEN       CLEAR     66  41  40 S10       29.83R
MOBRIDGE       CLOUDY    65  52  62 SE8       29.79R
BUFFALO          N/A     69  50  50 S8        29.79R
RAPID CITY     PTCLDY    63  43  48 E3        29.87R
GLASGOW        CLOUDY    73  42  32 NW6       29.79R
SIDNEY         PTCLDY    66  43  42 NW10      29.76R
WOLF POINT     CLOUDY    67  48  50 NW7       29.77R
GLENDIVE       CLEAR     70  43  37 NW13      29.82R
MILES CITY     MOCLDY    80  35  19 W3        29.80R
BAKER          MOCLDY    65  46  50 W6        29.83R
$$

CITY           SKY/WX    TMP DP  RH WIND       PRES   REMARKS
BILLINGS       CLOUDY    75  36  24 NE6       29.85S
GREAT FALLS    CLOUDY    62  41  46 NE18      29.97R
REGINA         MOCLDY    70  45  40 N13       29.75R
ESTEVAN        MOCLDY    68  39  34 NW12      29.72R
$$





USA.gov is the U.S. government's official web portal to all federal, state and local government web resources and services.